Location: Alta
(39.2070°N, 120.8111°W)
Time: 14:51:45
(UTC+00:00)

POLYITAN 1 - Visible Passes

Search period start: 01 April 2023 00:00
Search period end: 11 April 2023 00:00
Orbit: 577 x 596 km, 98.0° (Epoch: 01 April)

Date Brightness Start Highest point End Pass type
(mag) Time Alt. Az. Time Alt. Az. Time Alt. Az.
02 Apr ? 10:10:14 10° NNE 10:10:24 11° NNE 10:10:24 11° NNE visible
03 Apr ? 10:17:07 10° NNE 10:17:31 12° NNE 10:17:31 12° NNE visible
04 Apr ? 10:24:01 10° NNE 10:24:36 14° NNE 10:24:36 14° NNE visible
05 Apr ? 10:30:54 10° N 10:31:40 15° N 10:31:40 15° N visible
06 Apr ? 10:37:47 10° N 10:38:43 16° N 10:38:43 16° N visible
07 Apr ? 10:44:40 10° N 10:45:44 17° N 10:45:44 17° N visible
08 Apr ? 10:51:33 10° N 10:52:43 18° N 10:52:43 18° N visible
09 Apr ? 10:58:27 10° N 10:59:42 18° NNW 10:59:42 18° NNW visible
10 Apr ? 11:05:21 10° N 11:06:38 17° NNW 11:06:38 17° NNW visible
